Terminal Aerodrome Forecast
Issued by NWS

Home | Current Version | Previous Version | Graphics & Text | Print | Product List | Glossary Off
Versions: 1 2 3 4 5 6 7 8 9 10 11 12 13 14 15 16 17 18 19 20 21 22 23 24 25 26 27 28 29 30 31 32 33 34 35 36 37 38 39 40 41 42 43 44 45 46 47 48 49 50

000
FTUS43 KDDC 241148 RRA
TAFHYS
TAF
KHYS 241148Z 2412/2512 12006KT 1/4SM FG OVC002
      TEMPO 2412/2415 1/2SM FG OVC002
     FM241500 14011KT P6SM BKN020
     FM242300 12011KT P6SM BKN100
     FM250500 15007KT 5SM BR OVC004
     FM250700 15009KT 4SM BR OVC003 PROB30 2507/2510 4SM TS
      BKN003CB=

USA.gov is the U.S. government's official web portal to all federal, state and local government web resources and services.